GFSCGP_700_temp_144.txt.gz
Temp
-3 -4 -2 -2 -1 2 2 2 3 3 4 4 5 6 7 7 7 7 8 8 7 7 7 7 7 7 7 7 7 7 7 7 7 7 7 7 7 7 7 7 7 7 6 6
-3 -3 -2 -1 -1 1 2 2 3 3 4 4 5 6 6 7 7 7 7 7 7 7 7 7 7 7 7 7 7 7 7 7 7 7 7 6 6 7 7 7 6 6 6 6
-3 -3 -2 -1 -0 0 1 3 3 4 3 4 5 5 6 7 7 7 7 7 7 7 8 7 7 7 7 6 7 7 7 7 7 6 6 6 6 6 6 6 6 6 6 6
-3 -3 -2 -1 0 1 1 3 3 4 4 4 4 4 6 7 7 7 7 7 7 7 7 7 7 6 6 6 7 7 7 7 6 6 6 6 6 6 6 6 6 6 5 6
-4 -3 -3 -1 -0 1 2 3 3 4 4 4 4 5 7 7 7 7 7 7 7 7 7 7 6 6 6 6 6 7 6 6 6 5 6 6 6 6 6 6 5 5 5 5
-3 -3 -2 -1 -0 1 2 2 2 3 3 1 3 4 7 7 8 7 7 7 7 7 7 6 6 6 6 6 6 6 6 5 5 5 5 5 6 5 5 5 5 5 5 4
-3 -3 -1 -1 -1 -0 1 2 -0 -2 -3 -4 2 3 6 6 7 7 7 7 7 7 6 6 6 6 6 6 6 6 5 5 5 5 5 5 5 5 5 5 5 5 4 4
-3 -3 -1 -1 -0 0 0 2 2 -4 -5 -4 1 3 6 6 6 7 7 7 7 6 6 6 6 6 6 6 5 5 5 4 5 5 5 5 5 5 5 5 5 5 4 4
-3 -2 -1 -1 -0 0 0 2 2 2 -1 -0 2 4 6 6 6 6 6 6 6 6 5 5 6 5 5 5 4 4 4 4 5 5 5 5 5 5 5 5 4 4 4 3
-1 -1 -1 -1 -0 0 1 2 2 2 -3 -0 -1 3 6 6 6 6 6 5 5 5 5 5 5 5 4 4 4 4 4 4 4 4 4 4 4 4 4 4 3 3 3 3
-1 -0 -1 -1 -0 0 1 1 2 2 2 -3 -1 4 6 6 6 5 5 5 5 5 5 5 4 4 4 3 4 4 4 4 4 4 4 4 4 4 4 3 3 3 2 2
-1 -0 -1 -0 -0 1 1 1 2 3 1 2 1 4 5 6 5 4 4 4 4 4 4 3 3 3 3 4 4 4 4 4 4 4 4 4 3 3 3 2 2 2 2 2
-1 -1 -1 -1 -0 1 1 2 2 2 2 2 0 4 5 4 4 4 4 4 4 4 3 3 3 3 4 4 3 3 3 3 4 3 3 3 3 3 2 2 2 2 1 1
-1 -1 -0 -0 1 1 1 2 2 2 2 3 4 4 5 4 4 4 4 4 3 3 3 3 3 3 4 3 3 3 3 3 3 3 3 3 2 2 2 2 2 1 1 1
-1 -0 0 0 1 1 1 2 2 2 3 3 4 4 5 5 4 4 4 4 3 3 3 3 3 3 3 2 2 3 3 3 3 3 3 3 2 2 1 1 1 1 1 0
-1 -0 0 0 1 1 2 2 2 2 3 2 3 4 4 4 4 4 4 4 3 3 3 3 2 2 2 2 2 2 2 3 3 2 2 1 1 1 0 0 0 -0 -0 -0
-0 0 -0 0 1 1 1 3 3 3 4 4 4 6 4 4 4 4 4 3 3 2 2 2 2 2 2 2 2 2 2 2 1 1 0 -0 -0 -0 -1 -1 -1 -0 -0 -0
-1 -1 -1 0 0 -3 3 4 4 4 4 4 5 5 5 4 4 3 3 3 2 2 2 2 2 2 2 1 1 1 1 0 -0 -1 -1 -1 -1 -1 -1 -1 -1 -1 -1 -1
-1 -1 -1 -0 -0 2 3 3 4 4 5 5 5 5 5 4 4 4 3 2 1 1 1 1 1 1 1 1 1 -0 -1 -1 -1 -2 -2 -2 -2 -2 -2 -2 -2 -2 -1 -1
-1 -1 -1 -1 -1 -1 3 3 3 3 4 4 5 5 4 4 3 4 2 1 1 1 1 1 1 1 0 -0 -1 -1 -2 -2 -2 -2 -2 -2 -2 -3 -3 -2 -2 -2 -2 -2
-2 -2 -2 -2 -1 2 3 3 2 2 3 4 4 4 4 4 2 1 1 1 1 1 0 0 -0 -0 -1 -1 -2 -2 -2 -3 -3 -3 -3 -3 -3 -3 -3 -3 -3 -3 -3 -2
-1 -1 -1 -2 -1 0 3 2 2 3 3 3 4 4 4 3 2 1 1 1 0 0 0 0 -0 -1 -2 -2 -3 -3 -3 -3 -4 -4 -4 -4 -4 -4 -4 -3 -3 -3 -3 -3
-0 0 0 1 2 2 2 2 2 2 2 3 3 3 3 3 2 1 1 1 0 -0 -0 -1 -2 -2 -3 -3 -3 -4 -4 -4 -4 -4 -4 -4 -4 -4 -4 -4 -3 -3 -4 -4
1 1 1 1 2 2 2 2 2 2 2 2 2 2 2 1 1 0 0 -0 -1 -1 -2 -2 -3 -3 -4 -4 -4 -5 -5 -5 -5 -5 -5 -4 -4 -4 -4 -4 -4 -5 -5 -5
1 1 1 2 2 2 2 2 2 2 1 1 1 1 0 -0 -0 -1 -1 -1 -2 -2 -3 -3 -4 -4 -5 -5 -5 -5 -5 -5 -5 -5 -5 -5 -5 -4 -4 -5 -5 -6 -7 -7
2 2 2 2 2 1 1 1 1 1 1 1 0 -0 -1 -1 -1 -1 -2 -2 -3 -3 -4 -4 -5 -5 -5 -5 -5 -5 -5 -5 -5 -5 -5 -5 -5 -5 -6 -6 -6 -8 -9 -10

GFSCGP_700_temp_147.txt.gz
Temp
-4 -3 -3 -2 -2 -0 0 1 2 2 3 3 4 5 6 6 6 7 7 7 7 7 7 8 8 8 7 7 7 7 7 7 7 7 7 7 7 7 7 7 7 7 7 7
-4 -3 -3 -2 -2 -0 0 2 2 2 3 3 4 5 5 6 6 7 7 7 7 7 8 7 7 7 7 7 7 7 7 7 7 7 7 7 7 6 6 7 7 7 7 6
-3 -4 -3 -3 -2 -1 1 2 2 3 3 4 4 5 6 6 6 6 6 6 6 7 7 7 7 7 7 7 7 7 7 7 7 7 7 7 6 6 6 7 7 6 6 6
-3 -3 -3 -3 -1 -0 1 2 3 3 3 4 4 4 5 6 6 7 7 7 7 7 8 8 7 7 6 6 7 7 7 7 7 7 7 6 6 6 6 6 6 6 6 6
-3 -3 -3 -2 -0 0 1 2 3 3 4 4 4 5 6 6 6 7 7 7 7 7 7 7 7 6 6 6 6 6 6 6 6 6 6 5 6 6 6 6 6 6 6 5
-4 -3 -3 -1 -1 0 1 2 2 3 4 2 3 4 6 6 7 7 7 7 7 7 7 7 7 6 6 6 6 6 6 6 6 6 5 5 5 5 5 5 5 5 5 5
-4 -3 -2 -1 -0 1 1 1 -1 -1 -1 -1 2 4 6 6 7 7 7 7 7 7 6 6 6 6 6 6 6 6 6 6 5 5 5 5 5 5 5 5 5 5 4 4
-4 -4 -2 -1 -0 0 0 2 2 -3 -3 -2 1 3 6 6 6 7 8 7 7 7 6 6 6 6 6 6 6 5 5 5 5 5 5 5 5 5 5 5 5 4 4 4
-3 -3 -2 -1 -0 0 -0 1 2 1 -1 1 1 4 6 6 7 7 7 7 7 7 6 6 6 6 6 5 5 5 5 5 4 4 4 4 4 5 5 4 4 4 4 3
-2 -2 -2 -1 -0 0 1 1 2 2 -2 0 -1 3 7 7 7 7 6 6 6 6 6 6 6 5 5 5 5 4 4 4 4 4 4 4 4 4 4 4 4 4 3 3
-1 -1 -2 -1 -0 -0 0 1 2 2 1 -1 -1 4 6 6 6 6 6 6 6 5 5 5 5 4 4 4 4 4 4 4 4 3 4 4 4 4 4 4 4 4 3 3
-1 -1 -1 -1 -1 0 0 1 1 2 1 1 1 4 6 6 6 6 5 5 5 5 5 5 4 4 4 4 4 4 4 3 3 3 4 4 3 3 3 3 3 3 3 2
-1 -1 -2 -1 -1 -0 1 1 1 2 2 2 1 4 5 5 5 6 5 5 5 5 4 4 4 4 4 4 4 4 3 3 3 3 3 3 3 3 3 3 2 2 2 1
-1 -1 -0 -1 0 0 1 1 1 2 2 2 3 4 5 5 4 5 4 4 4 4 4 4 3 3 3 3 4 3 3 3 3 3 3 3 3 2 2 1 1 1 0 -0
-2 -1 -0 0 0 1 1 2 2 2 2 2 3 4 4 4 4 4 4 4 4 4 4 3 3 3 3 3 3 3 3 3 3 3 2 2 1 1 1 0 -0 -0 -0 -0
-1 -1 -0 -0 0 1 1 1 2 2 2 2 2 4 4 4 5 5 5 4 4 4 3 2 2 3 3 3 2 2 2 2 2 2 1 1 0 -0 -1 -1 -1 -1 -1 -1
-1 -1 -0 0 1 1 1 2 3 3 3 3 3 5 5 4 4 4 4 4 3 3 2 2 2 2 2 2 2 2 2 1 1 1 -0 -0 -1 -1 -1 -1 -2 -2 -2 -2
-1 -1 -1 -0 -0 -3 3 3 4 4 4 4 5 5 4 4 4 4 4 3 2 2 2 2 2 2 2 1 2 1 1 0 0 -0 -1 -1 -2 -2 -2 -2 -2 -2 -2 -2
-1 -1 -1 -1 -1 2 3 3 3 4 4 4 5 5 4 4 4 4 3 3 2 1 1 1 1 1 1 1 1 0 0 -1 -1 -2 -2 -2 -2 -3 -3 -3 -2 -2 -2 -2
-1 -1 -1 -1 -1 -1 2 3 3 3 3 4 4 5 5 4 4 3 3 2 1 1 1 1 1 0 0 0 0 -0 -1 -2 -2 -2 -3 -3 -3 -3 -3 -3 -3 -3 -3 -2
-2 -2 -2 -2 -1 2 2 2 2 2 3 3 4 5 5 4 3 2 1 1 1 0 0 0 0 0 0 -0 -1 -2 -2 -3 -3 -3 -4 -4 -4 -4 -4 -3 -3 -3 -3 -3
-1 -1 -1 -2 -1 -0 2 2 2 2 2 3 3 4 4 4 3 2 1 1 1 1 0 0 -0 -0 -1 -1 -2 -3 -3 -3 -4 -4 -4 -4 -4 -4 -4 -4 -4 -4 -4 -4
-0 0 0 1 1 2 2 2 2 2 2 2 3 3 3 3 2 2 1 1 0 0 -0 -0 -1 -1 -2 -2 -3 -4 -4 -4 -4 -5 -5 -5 -5 -5 -5 -5 -4 -4 -4 -4
1 0 1 1 2 2 2 2 2 2 2 2 2 2 2 2 2 1 1 0 -0 -0 -0 -1 -2 -2 -3 -3 -4 -4 -5 -5 -5 -5 -5 -5 -5 -5 -5 -5 -5 -5 -5 -6
0 1 1 2 2 1 2 2 2 2 2 2 2 2 1 1 1 1 0 -0 -0 -1 -1 -2 -3 -4 -4 -5 -5 -6 -6 -5 -5 -5 -6 -6 -5 -5 -5 -5 -6 -6 -7 -8
2 2 2 2 2 2 2 2 2 2 2 2 1 1 1 0 0 -0 -1 -1 -2 -2 -3 -3 -4 -5 -5 -5 -6 -6 -6 -6 -6 -6 -6 -6 -6 -6 -6 -7 -7 -8 -9 -10

GFSCGP_700_temp_150.txt.gz
Temp
-4 -4 -4 -3 -3 -1 -0 1 1 1 2 2 3 4 5 5 6 6 6 7 7 7 7 8 8 8 7 7 7 7 7 7 7 7 7 7 7 7 7 7 7 7 7 7
-4 -4 -4 -3 -3 -3 -1 1 1 1 3 2 3 4 4 5 6 6 6 6 7 6 7 7 8 7 7 7 7 7 7 7 7 7 7 7 7 6 7 7 7 7 7 7
-4 -3 -3 -3 -3 -2 -0 1 1 2 3 3 3 4 4 5 6 6 6 6 6 6 7 7 7 7 7 7 7 7 7 7 7 7 7 7 6 6 6 6 6 6 6 6
-4 -3 -3 -3 -3 -2 -0 1 2 3 3 3 4 5 4 5 5 6 6 6 6 7 7 7 7 7 6 6 7 7 7 7 6 7 6 6 6 6 6 6 6 6 6 6
-4 -4 -4 -3 -2 -1 1 1 2 3 4 3 4 5 5 5 5 6 6 6 6 6 7 7 6 6 6 7 7 7 6 6 7 6 6 6 5 6 6 5 6 5 5 5
-3 -3 -3 -4 -2 -1 1 1 1 2 3 4 3 4 4 5 6 6 6 6 6 6 7 7 6 6 6 6 7 6 6 6 6 6 5 5 5 5 5 5 5 5 5 5
-3 -3 -3 -1 -0 -0 1 1 0 1 2 4 2 4 5 6 7 6 6 6 6 6 6 6 6 6 6 6 6 6 6 6 6 5 5 5 5 5 5 5 5 5 5 5
-3 -3 -2 -1 -0 -0 0 1 2 0 3 3 2 4 5 6 7 7 7 7 7 7 6 6 6 6 6 6 6 6 6 5 5 5 4 5 5 5 4 4 5 5 5 4
-3 -3 -2 -1 -0 -0 1 1 2 1 1 4 2 4 5 6 6 7 7 7 7 7 6 6 6 6 6 6 6 5 5 5 5 4 4 5 5 4 4 4 5 5 4 4
-3 -2 -1 -1 -1 -0 0 2 2 2 2 4 2 2 6 6 7 7 7 7 7 7 6 6 6 6 6 5 5 5 5 4 4 4 4 4 4 4 4 4 4 4 4 3
-2 -2 -2 -1 -1 -1 0 1 2 2 2 6 6 6 6 7 7 7 7 7 6 6 6 6 6 6 5 5 5 4 4 4 4 4 4 4 4 4 4 4 3 3 3 3
-2 -1 -2 -1 -0 0 0 1 1 3 2 1 2 5 6 7 6 6 6 6 6 6 6 5 5 5 4 4 4 4 4 4 4 4 4 4 4 4 3 3 3 2 2 2
-2 -1 -2 -1 -1 -0 0 1 1 1 2 1 4 5 5 6 6 6 6 6 5 5 5 5 4 4 4 4 4 4 4 4 4 4 3 3 3 3 3 2 2 1 1 1
-2 -1 -1 0 1 0 0 1 1 1 2 2 3 4 4 5 6 6 6 5 4 4 4 4 4 4 4 3 3 4 4 4 3 3 3 3 2 2 2 1 1 0 -0 -0
-2 -1 -1 -0 0 0 1 1 2 2 2 2 3 3 4 4 5 5 4 4 5 5 4 4 3 3 3 3 3 3 3 3 3 2 2 2 2 1 1 0 -0 -0 -1 -1
-2 -1 -1 -1 0 1 1 1 2 2 2 2 3 4 4 4 5 5 5 5 5 4 4 3 3 3 3 3 3 3 2 2 2 2 1 1 1 0 -0 -1 -1 -1 -1 -2
-2 -2 -1 -1 -0 -0 1 2 2 3 3 3 3 5 4 4 4 4 5 5 4 4 3 3 3 2 2 2 2 2 2 2 1 1 1 0 -1 -1 -1 -2 -2 -2 -2 -2
-1 -1 -1 -1 -1 -0 2 3 3 3 3 4 4 5 4 4 4 4 4 3 3 3 3 2 2 2 1 1 2 1 1 1 1 0 -0 -1 -2 -2 -2 -2 -3 -3 -3 -3
-2 -2 -1 -1 -1 1 2 3 3 3 4 4 4 4 4 4 4 4 4 3 3 3 2 1 1 1 1 1 1 1 0 0 -0 -1 -2 -2 -2 -3 -3 -3 -3 -3 -3 -3
-2 -2 -2 -1 -1 2 2 2 3 3 3 3 4 4 5 5 4 4 3 3 3 2 2 1 1 1 0 0 0 -0 -0 -1 -2 -2 -3 -3 -3 -3 -3 -4 -4 -4 -4 -3
-2 -2 -2 -2 -1 1 2 2 2 2 2 3 4 4 5 5 4 4 3 3 2 2 1 1 0 -0 -0 -0 -0 -1 -1 -2 -3 -3 -3 -3 -4 -4 -4 -4 -4 -4 -4 -4
-1 -1 -1 -2 -1 -0 2 2 2 2 2 3 3 4 4 4 4 4 3 3 2 1 -0 -0 -0 -0 -0 -1 -1 -2 -2 -3 -3 -4 -4 -4 -4 -5 -5 -5 -5 -5 -5 -4
-0 -0 -0 0 1 1 2 2 2 2 2 2 3 3 3 4 4 3 2 1 1 0 -0 -0 -0 -1 -1 -1 -2 -3 -3 -4 -4 -4 -5 -5 -5 -6 -6 -6 -5 -5 -5 -5
0 0 1 1 2 2 2 2 2 2 2 2 2 2 2 2 2 2 2 1 0 -0 -1 -1 -1 -1 -2 -3 -3 -4 -4 -4 -5 -5 -6 -6 -6 -6 -6 -6 -6 -5 -6 -6
1 1 1 2 1 2 2 2 2 2 2 2 2 2 1 1 1 1 0 -0 -0 -1 -1 -1 -2 -2 -3 -3 -4 -5 -5 -6 -6 -6 -6 -6 -6 -6 -6 -6 -6 -7 -7 -8
2 2 2 1 2 2 2 2 2 2 2 1 1 1 1 1 0 -0 -1 -1 -1 -2 -2 -2 -3 -3 -4 -5 -6 -6 -6 -6 -7 -7 -6 -6 -6 -6 -6 -7 -7 -8 -9 -9

GFSCGP_700_temp_156.txt.gz
Temp
-5 -5 -5 -4 -4 -3 -4 -4 -4 -2 -3 -3 -1 1 2 3 4 4 5 5 6 7 7 8 8 7 7 8 8 8 8 8 8 8 8 8 7 7 7 7 7 7 7 7
-5 -5 -4 -4 -5 -5 -5 -4 -3 -1 -2 -3 -1 1 2 3 4 4 5 5 6 7 7 8 8 7 7 7 8 8 8 8 8 8 7 7 7 7 7 7 7 7 7 7
-5 -5 -5 -5 -5 -5 -5 -4 -3 -2 -1 -2 1 1 3 3 3 2 4 5 6 7 7 8 7 7 7 7 7 8 7 8 7 7 7 7 7 7 7 7 6 6 6 6
-5 -4 -4 -4 -4 -4 -4 -3 -2 -3 -2 0 1 1 2 3 3 2 3 4 5 7 7 7 7 6 7 7 7 7 7 7 7 7 7 7 7 6 6 6 6 6 6 6
-4 -4 -5 -4 -4 -4 -3 -2 -2 -2 0 1 2 3 3 3 2 2 2 3 5 6 6 6 7 6 6 7 7 7 7 7 7 7 7 7 6 6 6 6 6 6 6 6
-4 -4 -4 -4 -4 -3 -2 -3 -2 -2 1 0 3 3 4 3 4 3 3 5 6 6 6 6 6 6 6 7 7 7 7 7 7 6 6 6 6 6 6 5 6 6 5 5
-3 -4 -4 -4 -3 -3 -2 -2 -2 -2 -2 -2 4 3 4 5 5 5 5 5 5 6 6 6 6 7 7 7 6 6 6 6 6 6 6 6 6 6 5 5 5 5 5 5
-3 -3 -3 -3 -3 -2 -1 -1 -0 -1 -2 -1 2 3 5 4 4 5 5 6 6 6 6 6 6 6 6 6 6 6 6 6 6 6 6 6 5 5 5 5 5 5 5 5
-3 -2 -2 -2 -1 -1 -0 -0 0 0 1 0 2 4 4 4 4 4 5 5 5 6 6 6 6 6 6 6 6 6 6 6 6 6 6 5 5 5 5 4 4 4 4 4
-3 -2 -1 -1 -1 -1 -0 -1 -2 -0 -1 0 2 4 5 4 4 4 5 6 6 6 6 6 6 6 6 6 6 6 6 6 6 6 5 5 5 4 4 4 4 3 3 3
-3 -2 -1 -1 -1 -0 -0 -2 0 0 1 -1 0 3 5 5 5 4 5 6 6 6 6 6 6 6 6 6 6 6 6 5 5 5 4 4 4 4 4 4 3 3 3 3
-3 -2 -2 -1 -0 -0 0 -1 -1 -0 0 0 4 2 5 5 5 5 6 6 6 6 6 6 6 6 6 6 6 6 5 5 4 4 4 4 4 4 3 3 3 3 2 2
-2 -2 -2 -1 -0 -0 0 0 0 0 1 2 1 2 3 4 5 5 6 6 6 6 6 6 6 6 6 5 5 5 5 4 4 3 3 3 3 3 3 2 2 2 2 1
-2 -2 -2 -2 -2 -1 -0 0 1 1 1 2 2 2 2 3 5 6 6 6 6 6 6 6 6 6 5 5 5 4 4 3 3 3 3 3 3 3 2 2 1 1 0 -0
-2 -2 -2 -2 -1 -1 -1 -0 1 1 2 1 2 2 2 3 4 6 6 6 6 6 6 5 5 5 5 4 4 4 3 3 3 3 3 3 2 2 1 1 0 -0 -1 -1
-3 -3 -2 -1 -1 -1 -0 0 0 1 2 2 2 2 3 3 3 4 5 5 5 5 5 4 5 4 4 3 3 3 2 2 2 2 2 2 1 1 0 -0 -1 -1 -2 -2
-4 -3 -3 -1 -1 -1 -1 0 1 1 2 2 2 3 3 3 3 3 4 4 4 4 4 4 4 3 3 3 2 2 2 2 2 2 1 1 0 -0 -1 -1 -2 -2 -2 -2
-3 -3 -3 -2 -1 -3 1 1 2 1 2 3 3 2 3 3 3 4 4 4 4 4 4 4 4 3 3 2 2 2 1 1 1 1 1 0 -0 -1 -1 -2 -2 -3 -3 -3
-2 -3 -3 -2 -1 1 1 2 2 2 3 3 3 3 3 3 3 4 4 4 4 4 4 3 3 2 2 1 1 1 1 1 1 0 -0 -1 -1 -2 -2 -3 -3 -3 -4 -4
-2 -2 -2 -1 -1 -0 2 2 2 2 3 3 3 4 3 4 4 3 3 3 4 4 3 3 3 2 2 1 1 0 0 0 -0 -1 -1 -1 -2 -2 -3 -4 -4 -4 -4 -4
-2 -3 -2 -2 -2 -0 1 1 2 2 3 3 3 4 4 4 4 4 3 4 3 3 3 2 2 2 1 0 -0 -0 -0 -1 -1 -1 -2 -2 -3 -4 -4 -4 -5 -4 -4 -5
-2 -2 -2 -2 -1 -2 1 1 2 2 2 2 2 3 4 4 4 4 3 3 3 2 2 2 1 0 -0 -0 -1 -1 -1 -1 -1 -2 -3 -3 -4 -4 -5 -4 -5 -5 -5 -5
-1 -1 -1 -1 -0 0 1 1 1 1 2 2 2 2 3 3 3 3 3 2 2 1 1 1 0 -0 -0 -1 -1 -1 -1 -2 -2 -3 -4 -4 -5 -5 -5 -5 -5 -5 -5 -5
-0 -0 -0 0 1 1 1 1 1 1 1 1 2 2 2 2 2 2 2 2 2 1 1 0 -0 -1 -1 -1 -1 -1 -2 -3 -4 -4 -4 -5 -5 -5 -6 -6 -6 -6 -6 -6
-0 -0 0 1 1 1 1 1 1 1 1 1 2 2 2 2 2 2 1 1 1 0 -0 -0 -1 -1 -1 -1 -2 -3 -3 -4 -4 -5 -5 -5 -6 -6 -5 -6 -6 -6 -7 -8
2 2 1 1 1 1 1 1 2 2 2 2 2 2 1 1 1 1 1 0 0 -0 -1 -1 -1 -2 -2 -3 -3 -4 -4 -5 -5 -5 -6 -6 -5 -5 -5 -5 -6 -7 -7 -8

GFSCGP_700_temp_159.txt.gz
Temp
-5 -5 -4 -4 -5 -5 -5 -4 -4 -4 -4 -3 -2 -1 1 2 2 2 3 4 4 5 6 6 6 6 6 7 7 8 8 8 8 8 8 8 8 8 8 8 8 7 7 7
-5 -4 -4 -4 -5 -5 -5 -5 -4 -3 -3 -3 -2 -1 1 1 2 2 2 4 4 5 5 6 6 6 7 7 7 7 8 8 8 8 8 7 7 7 7 7 7 7 7 7
-5 -4 -5 -5 -5 -5 -5 -5 -5 -4 -4 -4 -4 -2 -1 1 1 1 2 3 5 5 6 6 6 7 7 7 7 7 7 7 8 7 7 7 7 7 7 7 7 7 7 6
-4 -4 -5 -5 -5 -5 -5 -4 -5 -4 -4 -4 -3 -2 -0 1 1 0 2 3 4 4 5 6 6 7 6 7 7 7 7 7 7 7 7 7 7 7 7 7 7 6 6 6
-4 -4 -4 -4 -4 -4 -4 -4 -4 -3 -4 -3 -3 -2 1 1 1 0 1 3 3 4 5 6 6 6 6 6 7 7 7 7 7 7 7 7 7 7 7 6 6 6 6 6
-3 -3 -4 -4 -4 -4 -4 -4 -3 -3 -2 -2 -1 -1 2 1 1 1 1 2 3 4 5 6 5 5 5 6 6 7 6 6 7 7 7 7 7 6 6 6 6 6 5 5
-3 -3 -4 -4 -4 -3 -4 -4 -3 -2 -3 -4 0 0 3 3 3 2 2 2 4 5 5 6 5 5 6 6 6 6 6 6 6 6 6 6 6 6 6 5 5 5 5 5
-3 -3 -3 -3 -2 -3 -2 -3 -3 -2 -3 -2 1 1 2 3 3 4 4 4 5 5 5 5 5 6 6 6 6 6 6 6 6 6 6 6 6 5 5 5 5 4 5 5
-3 -2 -2 -2 -2 -2 -1 -3 -2 -1 -1 -1 1 2 2 3 3 2 3 4 5 6 6 5 5 6 6 6 6 6 6 6 6 6 5 5 5 5 5 4 4 4 4 4
-3 -3 -2 -1 -2 -1 -1 -1 -2 -1 -2 -1 -0 2 3 4 2 3 2 3 5 5 5 5 5 5 5 5 6 6 6 6 5 5 5 5 4 4 4 4 4 4 3 3
-3 -3 -1 -1 -1 -1 -1 -1 -2 -3 -3 -2 -1 2 2 3 2 4 3 4 5 5 6 5 5 5 5 5 6 5 6 5 5 5 5 4 4 4 4 4 3 3 3 3
-3 -3 -2 -2 -1 -1 -1 -1 -1 -2 -3 -3 -3 1 2 4 3 4 4 4 5 6 6 5 5 5 5 5 5 5 5 5 5 5 4 4 4 4 4 3 3 3 2 2
-2 -2 -2 -2 -1 -1 -0 -0 -0 -1 -3 -2 -2 1 2 3 3 3 4 4 5 5 5 5 5 5 5 5 5 5 5 5 4 4 4 3 3 3 3 3 3 2 2 1
-3 -2 -3 -3 -2 -2 -1 -1 -0 0 -1 -1 1 1 2 2 3 2 3 4 4 5 5 5 5 5 5 5 4 4 4 4 3 3 3 3 3 3 3 2 2 1 1 0
-3 -3 -3 -2 -2 -2 -1 -1 -0 0 1 -0 2 2 2 2 3 3 3 3 4 4 5 5 5 5 4 4 4 4 4 3 3 3 3 3 3 2 2 1 1 0 0 -1
-4 -4 -4 -2 -1 -2 -1 -1 -0 -0 1 1 2 2 2 2 2 3 3 4 4 5 5 5 4 4 4 4 3 3 2 2 2 2 2 2 2 1 1 1 0 -0 -1 -2
-4 -3 -3 -2 -2 -2 -1 0 0 1 2 2 2 2 2 2 2 2 3 3 4 4 4 4 4 3 3 3 2 2 2 2 2 2 2 1 1 1 0 -0 -1 -2 -2 -3
-3 -3 -3 -3 -2 -4 1 1 1 1 2 2 2 2 2 2 2 2 2 3 3 3 3 3 3 3 2 2 2 2 2 2 1 1 1 1 0 -1 -1 -2 -2 -3 -3 -3
-3 -3 -3 -3 -2 -1 1 0 1 1 2 3 3 3 2 2 3 3 3 3 2 2 2 2 2 2 2 2 1 1 1 1 1 0 0 -0 -1 -1 -2 -2 -3 -4 -4 -4
-3 -3 -3 -3 -3 -2 0 1 1 1 2 3 3 3 3 3 3 3 3 3 3 3 3 2 2 2 2 1 1 1 0 0 -0 -0 -1 -1 -2 -2 -3 -3 -4 -4 -4 -4
-2 -3 -3 -3 -3 -1 0 0 1 1 2 3 3 3 3 3 3 3 3 3 3 3 3 2 2 1 1 1 0 -0 -1 -1 -1 -1 -1 -2 -3 -3 -4 -4 -4 -4 -4 -5
-2 -2 -3 -3 -3 -2 0 1 1 1 2 2 2 3 3 3 4 3 3 3 2 2 2 2 1 1 0 -0 -1 -1 -1 -1 -1 -2 -2 -3 -3 -4 -4 -5 -5 -5 -5 -5
-1 -1 -1 -2 -1 -0 -0 0 1 1 1 1 2 2 3 3 3 3 2 2 1 1 1 1 0 -0 -1 -1 -1 -1 -1 -2 -2 -3 -3 -4 -5 -5 -5 -5 -5 -5 -5 -5
-0 -1 -1 -1 0 0 1 0 1 1 1 1 1 2 2 2 3 2 2 1 1 1 0 0 -0 -1 -1 -1 -1 -2 -2 -2 -3 -4 -4 -5 -5 -5 -5 -5 -5 -5 -6 -6
-0 -0 0 1 1 1 1 1 1 1 1 1 2 2 2 2 2 2 2 2 1 1 0 -0 -1 -1 -1 -2 -2 -2 -3 -4 -4 -4 -5 -5 -5 -5 -5 -6 -6 -6 -6 -7
2 1 2 1 1 1 1 1 1 1 1 1 1 1 1 1 1 1 1 1 1 -0 -1 -1 -1 -2 -2 -2 -3 -3 -4 -4 -4 -5 -5 -5 -5 -6 -6 -6 -6 -7 -7 -8